TimeCST,TemperatureF,Dew PointF,Humidity,Sea Level PressureIn,VisibilityMPH,Wind Direction,Wind SpeedMPH,Gust SpeedMPH,PrecipitationIn,Events,Conditions,WindDirDegrees,DateUTC
12:16 AM,-4.0,-7.6,85,30.07,10.0,Calm,Calm,-,N/A,,Clear,0,2012-12-30 06:16:00
12:36 AM,-5.8,-9.4,84,30.06,10.0,Calm,Calm,-,N/A,,Clear,0,2012-12-30 06:36:00
12:56 AM,-5.8,-9.4,84,30.06,10.0,Calm,Calm,-,N/A,,Clear,0,2012-12-30 06:56:00
1:16 AM,-7.6,-11.2,84,30.06,10.0,Calm,Calm,-,N/A,,Clear,0,2012-12-30 07:16:00
1:36 AM,-7.6,-11.2,84,30.06,10.0,Calm,Calm,-,N/A,,Clear,0,2012-12-30 07:36:00
1:56 AM,-7.6,-11.2,84,30.05,7.0,Calm,Calm,-,N/A,,Clear,0,2012-12-30 07:56:00
2:16 AM,-7.6,-11.2,84,30.06,10.0,Calm,Calm,-,N/A,,Clear,0,2012-12-30 08:16:00
2:36 AM,-7.6,-11.2,84,30.08,10.0,Calm,Calm,-,N/A,,Clear,0,2012-12-30 08:36:00
2:56 AM,-7.6,-11.2,84,30.07,10.0,Calm,Calm,-,N/A,,Clear,0,2012-12-30 08:56:00
3:16 AM,-7.6,-11.2,84,30.06,10.0,Calm,Calm,-,N/A,,Clear,0,2012-12-30 09:16:00
3:36 AM,-7.6,-11.2,84,30.06,10.0,Calm,Calm,-,N/A,,Clear,0,2012-12-30 09:36:00
3:56 AM,-7.6,-11.2,84,30.07,10.0,Calm,Calm,-,N/A,,Clear,0,2012-12-30 09:56:00
4:16 AM,-7.6,-11.2,84,30.08,10.0,Calm,Calm,-,N/A,,Clear,0,2012-12-30 10:16:00
4:36 AM,-7.6,-11.2,84,30.07,10.0,Calm,Calm,-,N/A,,Clear,0,2012-12-30 10:36:00
4:56 AM,-5.8,-9.4,84,30.06,10.0,Calm,Calm,-,N/A,,Scattered Clouds,0,2012-12-30 10:56:00
5:16 AM,-5.8,-9.4,84,30.04,10.0,Calm,Calm,-,N/A,,Mostly Cloudy,0,2012-12-30 11:16:00
5:36 AM,-4.0,-7.6,85,30.03,10.0,Calm,Calm,-,N/A,,Overcast,0,2012-12-30 11:36:00
5:56 AM,-2.2,-5.8,85,30.04,10.0,SSE,4.6,-,N/A,Snow,Light Snow,160,2012-12-30 11:56:00
6:16 AM,-0.4,-4.0,85,30.04,10.0,SSW,3.5,-,N/A,,Overcast,200,2012-12-30 12:16:00
6:36 AM,1.4,-2.2,85,30.04,10.0,Calm,Calm,-,N/A,Snow,Light Snow,0,2012-12-30 12:36:00
6:56 AM,1.4,-2.2,85,30.03,7.0,South,3.5,-,N/A,Snow,Light Snow,170,2012-12-30 12:56:00
7:16 AM,1.4,-0.4,92,30.03,10.0,Calm,Calm,-,N/A,Snow,Light Snow,0,2012-12-30 13:16:00
7:36 AM,1.4,-0.4,92,30.02,10.0,South,3.5,-,N/A,Snow,Light Snow,170,2012-12-30 13:36:00
7:56 AM,1.4,-0.4,92,30.02,10.0,SSE,3.5,-,N/A,,Overcast,160,2012-12-30 13:56:00
8:16 AM,1.4,-0.4,92,30.02,10.0,SSE,3.5,-,N/A,Snow,Light Snow,160,2012-12-30 14:16:00
8:56 AM,1.4,-0.4,92,30.01,10.0,SSE,3.5,-,N/A,Snow,Light Snow,160,2012-12-30 14:56:00
9:16 AM,1.4,-0.4,92,30.02,10.0,South,5.8,-,N/A,Snow,Light Snow,170,2012-12-30 15:16:00
9:36 AM,3.2,1.4,92,30.02,7.0,South,4.6,-,N/A,Snow,Light Snow,170,2012-12-30 15:36:00
9:56 AM,3.2,1.4,92,30.02,7.0,South,5.8,-,N/A,Snow,Light Snow,170,2012-12-30 15:56:00
10:16 AM,5.0,1.4,85,30.01,10.0,SSE,4.6,-,N/A,Snow,Light Snow,150,2012-12-30 16:16:00
10:36 AM,6.8,3.2,85,30.00,10.0,SSE,6.9,-,N/A,,Clear,160,2012-12-30 16:36:00
10:56 AM,8.6,6.8,92,29.99,10.0,SSE,8.1,-,N/A,,Clear,150,2012-12-30 16:56:00
11:16 AM,10.4,8.6,92,29.97,10.0,SSE,5.8,-,N/A,,Clear,150,2012-12-30 17:16:00
11:36 AM,14.0,10.4,86,29.96,10.0,SE,4.6,-,N/A,,Clear,140,2012-12-30 17:36:00
11:56 AM,15.8,10.4,79,29.95,10.0,SSE,4.6,-,N/A,,Clear,160,2012-12-30 17:56:00
12:16 PM,19.4,12.2,74,29.92,10.0,SSE,5.8,-,N/A,,Clear,160,2012-12-30 18:16:00
12:36 PM,19.4,12.2,74,29.91,10.0,South,8.1,-,N/A,,Clear,170,2012-12-30 18:36:00
12:56 PM,19.4,12.2,74,29.89,10.0,SSE,9.2,-,N/A,,Clear,150,2012-12-30 18:56:00
1:16 PM,19.4,12.2,74,29.87,10.0,SSE,6.9,-,N/A,,Clear,150,2012-12-30 19:16:00
1:36 PM,21.2,12.2,68,29.87,10.0,SSE,6.9,-,N/A,,Clear,160,2012-12-30 19:36:00
1:56 PM,21.2,12.2,68,29.85,10.0,SSE,6.9,-,N/A,,Clear,150,2012-12-30 19:56:00
2:16 PM,21.2,12.2,68,29.85,10.0,SSE,4.6,-,N/A,,Clear,160,2012-12-30 20:16:00
2:36 PM,19.4,12.2,74,29.84,10.0,SSE,4.6,-,N/A,,Clear,150,2012-12-30 20:36:00
2:56 PM,21.2,12.2,68,29.83,10.0,SSE,5.8,-,N/A,,Clear,150,2012-12-30 20:56:00
3:16 PM,19.4,12.2,74,29.83,10.0,SSE,4.6,-,N/A,,Clear,150,2012-12-30 21:16:00
3:36 PM,19.4,12.2,74,29.83,10.0,SSE,4.6,-,N/A,,Clear,150,2012-12-30 21:36:00
3:56 PM,19.4,14.0,80,29.84,10.0,Calm,Calm,-,N/A,,Clear,0,2012-12-30 21:56:00
4:16 PM,19.4,12.2,74,29.84,10.0,South,4.6,-,N/A,,Clear,180,2012-12-30 22:16:00
4:36 PM,17.6,12.2,79,29.84,10.0,Calm,Calm,-,N/A,,Clear,0,2012-12-30 22:36:00
4:41 PM,17.6,12.2,79,29.84,10.0,Calm,Calm,-,N/A,,Clear,0,2012-12-30 22:41:00
5:16 PM,12.2,10.4,92,29.83,10.0,Calm,Calm,-,N/A,,Clear,0,2012-12-30 23:16:00
5:36 PM,12.2,10.4,92,29.83,10.0,Calm,Calm,-,N/A,,Clear,0,2012-12-30 23:36:00
5:56 PM,10.4,8.6,92,29.84,7.0,Calm,Calm,-,N/A,,Clear,0,2012-12-30 23:56:00
6:16 PM,8.6,6.8,92,29.84,10.0,Calm,Calm,-,N/A,,Clear,0,2012-12-31 00:16:00
6:36 PM,8.6,6.8,92,29.85,10.0,Calm,Calm,-,N/A,,Clear,0,2012-12-31 00:36:00
6:56 PM,10.4,8.6,92,29.84,10.0,Calm,Calm,-,N/A,,Clear,0,2012-12-31 00:56:00
7:16 PM,10.4,8.6,92,29.85,10.0,Calm,Calm,-,N/A,,Scattered Clouds,0,2012-12-31 01:16:00
7:36 PM,15.8,12.2,86,29.85,10.0,Calm,Calm,-,N/A,,Overcast,0,2012-12-31 01:36:00
7:56 PM,15.8,12.2,86,29.85,10.0,Calm,Calm,-,N/A,,Mostly Cloudy,0,2012-12-31 01:56:00
8:16 PM,15.8,12.2,86,29.85,7.0,Calm,Calm,-,N/A,Snow,Light Snow,0,2012-12-31 02:16:00
8:36 PM,15.8,14.0,93,29.86,10.0,WNW,5.8,-,N/A,,Mostly Cloudy,300,2012-12-31 02:36:00
8:56 PM,17.6,14.0,86,29.87,10.0,NW,8.1,16.1,N/A,,Mostly Cloudy,310,2012-12-31 02:56:00
9:16 PM,17.6,12.2,79,29.88,10.0,WNW,9.2,-,N/A,,Overcast,300,2012-12-31 03:16:00
9:36 PM,15.8,12.2,86,29.89,10.0,WNW,10.4,18.4,N/A,Snow,Light Snow,300,2012-12-31 03:36:00
9:56 PM,15.8,12.2,86,29.90,7.0,WNW,12.7,19.6,N/A,Snow,Light Snow,300,2012-12-31 03:56:00
10:16 PM,15.8,10.4,79,29.92,5.0,WNW,10.4,18.4,N/A,Snow,Light Snow,300,2012-12-31 04:16:00
10:36 PM,14.0,10.4,86,29.92,3.0,WNW,5.8,-,N/A,Snow,Light Snow,300,2012-12-31 04:36:00
10:56 PM,14.0,8.6,79,29.93,5.0,WNW,6.9,19.6,N/A,Snow,Light Snow,300,2012-12-31 04:56:00
11:16 PM,12.2,10.4,92,29.94,2.5,NW,9.2,-,N/A,Snow,Light Snow,310,2012-12-31 05:16:00
11:36 PM,12.2,8.6,85,29.95,5.0,NNW,4.6,-,N/A,Snow,Light Snow,330,2012-12-31 05:36:00
11:56 PM,12.2,8.6,85,29.95,4.0,WNW,4.6,-,N/A,Snow,Light Snow,300,2012-12-31 05:56:00